Home   Weather   Enschede   Past weeks

Flag for Netherlands Past Weather in Enschede, Netherlands — Yesterday and Last 2 Weeks

Now
50 °F

Broken clouds.


Feels Like: 48 °F
Forecast: 34 / 52 °F
Wind: 6 mph from West

Location: Deelen

Current Time: Apr 28, 2017 at 2:30:39 pm

Latest Report: Apr 28, 2017 at 1:55 pm


Visibility: N/A

Pressure: 29.92 "Hg

Humidity: 62%

Dew Point: 37 °F

Location of EnschedeLocation

Past Weather in Enschede — Graph

°F

Enschede Temperature Yesterday

Maximum temperature yesterday: 52 °F (at 5:55 pm)
Minimum temperature yesterday: 27 °F (at 4:25 am)
Average temperature yesterday: 40 °F

High & Low Weather Summary for the Past Weeks

 TemperatureHumidityPressure
High59 °F (Apr 21, 1:55 pm)100% (Apr 14, 1:25 am)30.63 "Hg (Apr 14, 1:25 am)
Low23 °F (Apr 20, 6:55 am)35% (Apr 20, 2:25 pm)29.68 "Hg (Apr 25, 2:55 am)
Average43 °F75%30.13 "Hg
* Reported Apr 13 1:04 pm — Apr 28 1:25 pm, Enschede, Weather by CustomWeather, © 2017

Note: Actual official high and low records may vary slightly from our data, if they occured in-between our weather recording intervals... More about our weather records

Advertising

Enschede Weather History for the Previous 24 Hours

Scroll right to see more
 ConditionsComfort  
Time TempWeatherWind HumidityBarometerVisibility
1:25 pm
Fri, Apr 28
48 °FMore clouds than sun.8 mph62%29.92 "HgN/A
12:55 pm52 °FBroken clouds.5 mph62%29.92 "HgN/A
12:25 pm50 °FMostly cloudy.5 mph67%29.92 "HgN/A
11:55 am46 °FMostly cloudy.7 mph82%29.92 "HgN/A
11:25 am46 °FDrizzle. Broken clouds.10 mph87%29.92 "HgN/A
10:55 am48 °FMostly cloudy.7 mph76%29.92 "HgN/A
10:25 am48 °FBroken clouds.6 mph76%29.92 "HgN/A
9:55 am46 °FBroken clouds.7 mph82%29.92 "HgN/A
9:25 am45 °FPartly sunny.7 mph87%29.92 "HgN/A
8:55 am45 °FFog.7 mph93%29.92 "Hg4 mi
8:25 am43 °FFog.7 mph93%29.92 "Hg3 mi
7:55 am41 °FFog.6 mph93%29.92 "Hg2 mi
7:25 am41 °FDrizzle. Broken clouds.3 mph93%29.92 "Hg2 mi
6:55 am39 °FDrizzle. Mostly cloudy.5 mph100%29.92 "Hg2 mi
6:25 am41 °FFog.7 mph87%29.92 "Hg4 mi
5:55 am41 °FFog.6 mph87%29.92 "Hg4 mi
5:25 am41 °FFog.6 mph87%29.92 "Hg5 mi
4:55 am41 °FDrizzle. Mostly cloudy.8 mph81%29.92 "Hg5 mi
4:25 am41 °FDrizzle. Mostly cloudy.9 mph81%29.92 "HgN/A
3:55 am41 °FLight rain. Mostly cloudy.8 mph81%29.92 "HgN/A
3:25 am41 °FOvercast.6 mph81%29.95 "HgN/A
2:55 am39 °FMostly cloudy.7 mph87%29.95 "HgN/A
2:25 am37 °FOvercast.6 mph87%29.95 "HgN/A
1:55 am36 °FMostly cloudy.3 mph87%29.95 "HgN/A
1:25 am34 °FPassing clouds.2 mph87%29.95 "HgN/A
12:55 am32 °FPassing clouds.2 mph93%29.95 "HgN/A
12:25 am34 °FChilly.2 mph87%29.95 "HgN/A
11:55 pm
Thu, Apr 27
34 °FPassing clouds.3 mph87%29.98 "HgN/A
11:25 pm36 °FChilly.3 mph81%29.98 "HgN/A
10:55 pm36 °FChilly.3 mph81%29.98 "HgN/A
10:25 pm37 °FPassing clouds.3 mph75%29.98 "HgN/A
9:55 pm39 °FChilly.3 mph70%29.98 "HgN/A
9:25 pm41 °FQuite cool.5 mph66%29.98 "HgN/A
8:55 pm43 °FPassing clouds.5 mph61%29.98 "HgN/A
8:25 pm46 °FCool.8 mph53%29.98 "HgN/A
7:55 pm48 °FCool.8 mph50%29.98 "HgN/A
7:25 pm50 °FScattered clouds.12 mph43%29.98 "HgN/A
6:55 pm50 °FPassing clouds.9 mph47%29.98 "HgN/A
6:25 pm48 °FPartly sunny.8 mph54%29.98 "HgN/A
5:55 pm52 °FPartly sunny.10 mph50%29.98 "HgN/A
5:25 pm50 °FPartly sunny.13 mph50%29.98 "HgN/A
4:55 pm48 °FPartly sunny.6 mph62%29.98 "HgN/A
4:25 pm46 °FMostly cloudy.3 mph71%29.98 "HgN/A
3:55 pm46 °FLight rain. Partly sunny.5 mph57%29.98 "HgN/A
3:25 pm46 °FMore clouds than sun.3 mph62%30.01 "HgN/A
2:55 pm43 °FMostly cloudy.7 mph76%30.01 "HgN/A
2:25 pm50 °FBroken clouds.9 mph58%30.01 "HgN/A
Weather by CustomWeather, © 2017

See weather overviewHow to use our weather pages